EW8974 Weather Reports


Display with metric or nautical units.
time (UTC)temp
F
wind
direction
speed
MPH
gust
MPH
rain 1hr
in
rain 24hr
in
rain mn
in
humidity
%
barometer
mb
20260901135519 80 238 0.0 2.0 0.00 0.00 0.00 77 1011.1
20260901135020 80 238 0.0 4.0 0.00 0.00 0.00 77 1011.2
20260901134518 79 253 0.0 2.0 0.00 0.00 0.00 78 1011.1
20260901134017 79 233 0.0 2.0 0.00 0.00 0.00 79 1011.2
20260901133516 78 251 0.0 2.0 0.00 0.00 0.00 80 1011.0
20260901133015 78 130 0.0 2.0 0.00 0.00 0.00 81 1011.0
20260901132515 77 246 0.0 2.0 0.00 0.00 0.00 82 1010.9
20260901132019 77 238 0.0 1.0 0.00 0.00 0.00 82 1010.9
20260901131514 76 238 0.0 2.0 0.00 0.00 0.00 83 1010.8
20260901131013 76 238 0.0 1.0 0.00 0.00 0.00 83 1010.9
20260901130513 75 238 0.0 0.0 0.00 0.00 0.00 83 1010.8
20260901130015 75 238 0.0 1.0 0.00 0.00 0.00 83 1010.8
20260901125516 74 238 0.0 1.0 0.00 0.00 0.00 84 1010.8
20260901125012 74 238 0.0 1.0 0.00 0.00 0.00 84 1010.6
20260901124511 74 238 0.0 0.0 0.00 0.00 0.00 83 1010.6
20260901124011 74 238 0.0 0.0 0.00 0.00 0.00 83 1010.4
20260901123510 73 238 0.0 0.0 0.00 0.00 0.00 83 1010.5
20260901123010 73 238 0.0 0.0 0.00 0.00 0.00 82 1010.4
20260901122512 73 238 0.0 0.0 0.00 0.00 0.00 82 1010.4
20260901122008 73 238 0.0 0.0 0.00 0.00 0.00 82 1010.3
20260901121507 73 238 0.0 0.0 0.00 0.00 0.00 82 1010.1
20260901121007 73 238 0.0 0.0 0.00 0.00 0.00 82 1010.0
20260901120507 74 238 0.0 0.0 0.00 0.00 0.00 82 1010.0
20260901120007 74 238 0.0 0.0 0.00 0.00 0.00 82 1009.9
20260901115507 74 238 0.0 0.0 0.00 0.00 0.00 82 1010.0
20260901115007 74 238 0.0 0.0 0.00 0.00 0.00 81 1009.9
20260901114507 74 238 0.0 0.0 0.00 0.00 0.00 81 1009.9
20260901114005 74 238 0.0 0.0 0.00 0.00 0.00 81 1009.9
20260901113505 74 238 0.0 0.0 0.00 0.00 0.00 81 1009.8
20260901113005 74 238 0.0 0.0 0.00 0.00 0.00 81 1009.7
20260901112504 74 238 0.0 0.0 0.00 0.00 0.00 81 1009.7
20260901112003 74 238 0.0 0.0 0.00 0.00 0.00 81 1009.7
20260901111504 74 238 0.0 1.0 0.00 0.00 0.00 81 1009.6
20260901111004 74 238 0.0 1.0 0.00 0.00 0.00 82 1009.7
20260901110503 74 238 0.0 1.0 0.00 0.00 0.00 82 1009.7
20260901110007 73 238 0.0 1.0 0.00 0.00 0.00 82 1009.7
20260901105503 73 238 0.0 0.0 0.00 0.00 0.00 81 1009.7
20260901105004 73 238 0.0 0.0 0.00 0.00 0.00 81 1009.6
20260901104501 74 238 0.0 0.0 0.00 0.00 0.00 81 1009.6
20260901104004 74 238 0.0 0.0 0.00 0.00 0.00 81 1009.6
20260901103501 74 238 0.0 0.0 0.00 0.00 0.00 81 1009.6
20260901103100 74 238 0.0 0.0 0.00 0.00 0.00 80 1009.6
20260901103000 74 238 0.0 0.0 0.00 0.00 0.00 80 1009.6
20260901102600 74 238 0.0 0.0 0.00 0.00 0.00 80 1009.6
20260901102059 74 238 0.0 0.0 0.00 0.00 0.00 80 1009.5
20260901101559 74 238 0.0 0.0 0.00 0.00 0.00 79 1009.6
20260901101057 74 238 0.0 0.0 0.00 0.00 0.00 79 1009.5
20260901100600 75 238 0.0 0.0 0.00 0.00 0.00 79 1009.6
20260901100059 75 238 0.0 0.0 0.00 0.00 0.00 78 1009.5
20260901095555 75 238 0.0 0.0 0.00 0.00 0.00 78 1009.4
20260901095054 75 238 0.0 0.0 0.00 0.00 0.00 78 1009.4
20260901094554 76 238 0.0 0.0 0.00 0.00 0.00 78 1009.5
20260901094053 76 238 0.0 0.0 0.00 0.00 0.00 77 1009.6
20260901093551 76 238 0.0 0.0 0.00 0.00 0.00 77 1009.5
20260901093056 76 238 0.0 0.0 0.00 0.00 0.00 75 1009.4
20260901092550 77 238 0.0 1.0 0.00 0.00 0.00 75 1009.5
20260901092050 77 238 0.0 1.0 0.00 0.00 0.00 75 1009.5
20260901091601 77 238 0.0 0.0 0.00 0.00 0.00 75 1009.5
20260901091051 77 238 0.0 0.0 0.00 0.00 0.00 73 1009.6
20260901090550 78 238 0.0 0.0 0.00 0.00 0.00 73 1009.6
20260901090056 78 238 0.0 1.0 0.00 0.00 0.00 74 1009.6
20260901085548 78 238 0.0 1.0 0.00 0.00 0.00 74 1009.5
20260901085047 78 238 0.0 1.0 0.00 0.00 0.00 73 1009.6
20260901084550 78 238 0.0 1.0 0.00 0.00 0.00 73 1009.4
20260901084048 78 238 0.0 1.0 0.00 0.00 0.00 73 1009.4
20260901083547 78 238 0.0 0.0 0.00 0.00 0.00 72 1009.4
20260901083047 78 238 0.0 0.0 0.00 0.00 0.00 71 1009.4
20260901082546 78 238 0.0 2.0 0.00 0.00 0.00 71 1009.4
20260901082046 78 238 0.0 2.0 0.00 0.00 0.00 71 1009.4
20260901081548 78 238 0.0 2.0 0.00 0.00 0.00 71 1009.4
20260901081045 78 238 0.0 2.0 0.00 0.00 0.00 71 1009.3
20260901080545 78 238 0.0 2.0 0.00 0.00 0.00 70 1009.4
20260901080104 78 238 0.0 2.0 0.00 0.00 0.00 70 1009.3
20260901075545 78 238 0.0 1.0 0.00 0.00 0.00 70 1009.4
20260901075044 78 238 0.0 1.0 0.00 0.00 0.00 68 1009.4
20260901074544 78 238 0.0 0.0 0.00 0.00 0.00 67 1009.4
20260901074044 78 238 0.0 0.0 0.00 0.00 0.00 67 1009.5
20260901073544 78 238 0.0 0.0 0.00 0.00 0.00 67 1009.4
20260901073043 78 238 0.0 1.0 0.00 0.00 0.00 67 1009.3
20260901072545 78 238 0.0 1.0 0.00 0.00 0.00 66 1009.4
20260901072045 78 238 0.0 1.0 0.00 0.00 0.00 66 1009.4
20260901071543 78 238 0.0 1.0 0.00 0.00 0.00 66 1009.4
20260901071042 78 269 0.0 1.0 0.00 0.00 0.00 67 1009.2
20260901070541 78 335 0.0 1.0 0.00 0.00 0.00 68 1009.3
20260901070053 78 335 0.0 1.0 0.00 0.00 0.00 67 1009.3
20260901065541 78 338 0.0 1.0 0.00 0.00 0.00 66 1009.2
20260901065040 79 338 0.0 1.0 0.00 0.00 0.00 65 1009.2
20260901064542 79 338 0.0 1.0 0.00 0.00 0.00 65 1009.2
20260901064040 79 338 0.0 1.0 0.00 0.00 0.00 65 1009.1
20260901063538 79 338 0.0 1.0 0.00 0.00 0.00 64 1009.0
20260901063038 79 338 0.0 1.0 0.00 0.00 0.00 64 1009.0
20260901062538 79 338 0.0 1.0 0.00 0.00 0.00 65 1009.0
20260901062037 79 338 0.0 1.0 0.00 0.00 0.00 66 1008.8
20260901061537 79 2 0.0 1.0 0.00 0.00 0.00 66 1008.9
20260901061035 79 12 0.0 1.0 0.00 0.00 0.00 65 1008.8
20260901060535 78 153 0.0 0.0 0.00 0.00 0.00 65 1008.7
20260901060040 78 153 0.0 0.0 0.00 0.00 0.00 65 1008.7
20260901055534 78 155 0.0 0.0 0.00 0.00 0.00 64 1008.7
20260901055033 78 155 0.0 0.0 0.00 0.00 0.00 65 1008.7
20260901054532 78 154 0.0 0.0 0.00 0.00 0.00 64 1008.6
20260901054033 78 154 0.0 0.0 0.00 0.00 0.00 64 1008.6
20260901053531 78 154 0.0 0.0 0.00 0.00 0.00 64 1008.5
20260901053031 77 161 0.0 0.0 0.00 0.00 0.00 63 1008.4
20260901052531 77 161 0.0 0.0 0.00 0.00 0.00 63 1008.4
20260901052028 77 161 0.0 0.0 0.00 0.00 0.00 63 1008.3
20260901051528 77 162 0.0 0.0 0.00 0.00 0.00 63 1008.2
20260901051026 77 158 0.0 0.0 0.00 0.00 0.00 63 1008.3
20260901050528 77 158 0.0 0.0 0.00 0.00 0.00 63 1008.3
20260901050025 76 158 0.0 0.0 0.00 0.00 0.00 64 1008.2
20260901045525 76 158 0.0 0.0 0.00 0.00 0.00 65 1008.3
20260901045026 76 158 0.0 0.0 0.00 0.00 0.00 65 1008.2
20260901044526 76 158 0.0 0.0 0.00 0.00 0.00 64 1008.1
20260901044026 76 158 0.0 0.0 0.00 0.00 0.00 63 1008.3
20260901043522 77 158 0.0 0.0 0.00 0.00 0.00 63 1008.2
20260901043023 77 158 0.0 0.0 0.00 0.00 0.00 63 1008.0
20260901042524 77 158 0.0 0.0 0.00 0.00 0.00 62 1008.0
20260901042021 77 158 0.0 0.0 0.00 0.00 0.00 62 1008.1
20260901041522 77 158 0.0 0.0 0.00 0.00 0.00 62 1008.1
20260901041021 77 158 0.0 0.0 0.00 0.00 0.00 62 1008.2
20260901040522 77 158 0.0 0.0 0.00 0.00 0.00 62 1008.1
20260901040021 77 158 0.0 0.0 0.00 0.00 0.00 61 1008.2
20260901035521 77 158 0.0 0.0 0.00 0.00 0.00 62 1008.2
20260901035021 77 158 0.0 0.0 0.00 0.00 0.00 61 1008.2
20260901034522 77 158 0.0 0.0 0.00 0.00 0.00 61 1008.3
20260901034020 78 158 0.0 0.0 0.00 0.00 0.00 61 1008.1
20260901033521 78 158 0.0 0.0 0.00 0.00 0.00 61 1008.1
20260901033031 78 158 0.0 0.0 0.00 0.00 0.00 61 1008.2
20260901032520 78 158 0.0 0.0 0.00 0.00 0.00 60 1008.1
20260901032020 78 158 0.0 0.0 0.00 0.00 0.00 57 1008.2
20260901031523 79 158 0.0 0.0 0.00 0.00 0.00 57 1008.1
20260901031019 79 158 0.0 0.0 0.00 0.00 0.00 57 1008.1
20260901030520 79 158 0.0 0.0 0.00 0.00 0.00 57 1008.1
20260901030019 79 158 0.0 0.0 0.00 0.00 0.00 56 1008.0
20260901025519 79 158 0.0 0.0 0.00 0.00 0.00 55 1007.9
20260901025019 80 158 0.0 0.0 0.00 0.00 0.00 54 1007.9
20260901024519 80 158 0.0 0.0 0.00 0.00 0.00 53 1007.8
20260901024019 80 158 0.0 0.0 0.00 0.00 0.00 53 1007.8
20260901023518 80 158 0.0 0.0 0.00 0.00 0.00 52 1007.7
20260901023019 81 158 0.0 0.0 0.00 0.00 0.00 51 1007.7
20260901022518 81 158 0.0 0.0 0.00 0.00 0.00 50 1007.5
20260901022018 81 158 0.0 0.0 0.00 0.00 0.00 50 1007.5
20260901021537 81 158 0.0 0.0 0.00 0.00 0.00 49 1007.4
20260901021018 82 158 0.0 0.0 0.00 0.00 0.00 48 1007.3
20260901020520 82 158 0.0 0.0 0.00 0.00 0.00 47 1007.2
20260901020017 82 158 0.0 0.0 0.00 0.00 0.00 46 1007.3
20260901015518 83 158 0.0 0.0 0.00 0.00 0.00 46 1007.2
20260901015017 83 158 0.0 0.0 0.00 0.00 0.00 45 1007.0
20260901014517 83 158 0.0 0.0 0.00 0.00 0.00 44 1007.1
20260901014016 84 158 0.0 0.0 0.00 0.00 0.00 43 1007.0
20260901013517 84 158 0.0 0.0 0.00 0.00 0.00 43 1007.0
20260901013026 85 158 0.0 0.0 0.00 0.00 0.00 43 1007.1
20260901012516 85 158 0.0 0.0 0.00 0.00 0.00 41 1007.1
20260901012017 86 158 0.0 0.0 0.00 0.00 0.00 41 1007.1
20260901011519 87 158 0.0 0.0 0.00 0.00 0.00 40 1007.0
20260901011015 87 158 0.0 0.0 0.00 0.00 0.00 39 1006.9
20260901010514 89 158 0.0 0.0 0.00 0.00 0.00 39 1006.8
20260901010033 90 158 0.0 0.0 0.00 0.00 0.00 38 1006.8
20260901005514 91 158 0.0 0.0 0.00 0.00 0.00 37 1006.9
20260901005013 92 158 0.0 0.0 0.00 0.00 0.00 36 1006.8
20260901004515 94 158 0.0 0.0 0.00 0.00 0.00 35 1006.8
20260901004013 95 158 0.0 1.0 0.00 0.00 0.00 34 1006.9
20260901003513 96 158 0.0 1.0 0.00 0.00 0.00 34 1006.8
20260901003013 97 162 0.0 0.0 0.00 0.00 0.00 33 1006.8
20260901002513 98 162 0.0 0.0 0.00 0.00 0.00 32 1006.7
20260901002012 98 161 0.0 0.0 0.00 0.00 0.00 32 1006.8
20260901001512 99 161 0.0 0.0 0.00 0.00 0.00 31 1006.7
20260901001011 99 167 0.0 1.0 0.00 0.00 0.00 31 1006.7
20260901000511 100 167 0.0 0.0 0.00 0.00 0.00 30 1006.7
20260901000011 100 191 0.0 2.0 0.00 0.00 0.00 30 1006.6
20260831235515 100 245 0.0 3.0 0.00 0.00 0.00 30 1006.8
20260831235011 100 244 0.0 5.0 0.00 0.00 0.00 30 1006.8
20260831234511 100 184 1.0 5.0 0.00 0.00 0.00 30 1006.8
20260831234011 101 178 1.0 3.0 0.00 0.00 0.00 31 1006.8
20260831233510 100 204 0.0 2.0 0.00 0.00 0.00 31 1006.8
20260831233012 100 157 0.0 4.0 0.00 0.00 0.00 31 1006.9
20260831232512 101 157 0.0 5.0 0.00 0.00 0.00 29 1006.8
20260831232010 103 229 1.0 3.0 0.00 0.00 0.00 29 1006.8
20260831231509 103 146 0.0 3.0 0.00 0.00 0.00 30 1006.7
20260831231009 102 280 0.0 4.0 0.00 0.00 0.00 31 1006.7
20260831230510 102 191 0.0 5.0 0.00 0.00 0.00 31 1006.7
20260831230009 103 243 1.0 5.0 0.00 0.00 0.00 30 1006.8
20260831225507 103 248 0.0 5.0 0.00 0.00 0.00 30 1006.9
20260831225006 103 11 0.0 5.0 0.00 0.00 0.00 30 1006.9
20260831224506 103 320 0.0 5.0 0.00 0.00 0.00 31 1006.9
20260831224005 102 191 1.0 6.0 0.00 0.00 0.00 31 1006.9
20260831223505 103 278 2.0 8.0 0.00 0.00 0.00 30 1007.0
20260831223013 103 248 1.0 6.0 0.00 0.00 0.00 30 1007.0
20260831222504 103 255 1.0 5.0 0.00 0.00 0.00 30 1007.0
20260831222002 103 259 2.0 5.0 0.00 0.00 0.00 30 1007.1
20260831221502 103 347 0.0 4.0 0.00 0.00 0.00 30 1007.1
20260831221001 103 181 0.0 5.0 0.00 0.00 0.00 31 1007.1
20260831220600 102 179 1.0 6.0 0.00 0.00 0.00 31 1007.1
20260831220501 102 270 2.0 6.0 0.00 0.00 0.00 32 1007.0
20260831215559 102 53 0.0 6.0 0.00 0.00 0.00 31 1007.1
20260831215058 101 229 1.0 4.0 0.00 0.00 0.00 33 1007.2
20260831214557 100 269 0.0 5.0 0.00 0.00 0.00 35 1007.4
20260831214057 99 202 1.0 5.0 0.00 0.00 0.00 35 1007.3
20260831213558 99 170 0.0 6.0 0.00 0.00 0.00 35 1007.3
20260831213058 99 178 2.0 6.0 0.00 0.00 0.00 33 1007.5
20260831212556 101 230 2.0 6.0 0.00 0.00 0.00 33 1007.5
20260831212056 102 202 2.0 6.0 0.00 0.00 0.00 34 1007.5
20260831211608 101 59 1.0 4.0 0.00 0.00 0.00 34 1007.5
20260831211055 100 247 0.0 5.0 0.00 0.00 0.00 34 1007.6
20260831210554 100 224 1.0 6.0 0.00 0.00 0.00 36 1007.7
20260831210054 100 167 0.0 3.0 0.00 0.00 0.00 34 1007.7
20260831205553 101 286 0.0 4.0 0.00 0.00 0.00 32 1007.8
20260831205054 101 340 0.0 4.0 0.00 0.00 0.00 33 1008.0
20260831204553 101 343 0.0 6.0 0.00 0.00 0.00 32 1008.0
20260831204053 102 234 1.0 11.0 0.00 0.00 0.00 33 1008.0
20260831203552 101 181 2.0 11.0 0.00 0.00 0.00 33 1008.2
20260831203056 101 171 1.0 6.0 0.00 0.00 0.00 34 1008.1
20260831202552 101 148 1.0 9.0 0.00 0.00 0.00 34 1008.3
20260831202052 101 248 2.0 9.0 0.00 0.00 0.00 34 1008.4
20260831201558 101 251 3.0 9.0 0.00 0.00 0.00 33 1008.5
20260831201052 101 349 1.0 3.0 0.00 0.00 0.00 33 1008.4
20260831200551 101 154 0.0 6.0 0.00 0.00 0.00 34 1008.5
20260831200050 101 224 2.0 6.0 0.00 0.00 0.00 33 1008.5
20260831195649 101 210 2.0 5.0 0.00 0.00 0.00 33 1008.6
20260831195049 100 311 1.0 4.0 0.00 0.00 0.00 35 1008.7
20260831194634 101 224 1.0 5.0 0.00 0.00 0.00 34 1008.8
20260831194047 101 283 0.0 11.0 0.00 0.00 0.00 36 1008.9
20260831193546 100 236 3.0 11.0 0.00 0.00 0.00 36 1008.9
20260831193047 100 167 1.0 6.0 0.00 0.00 0.00 36 1009.1
20260831192545 100 213 0.0 6.0 0.00 0.00 0.00 37 1009.1
20260831192045 100 250 2.0 6.0 0.00 0.00 0.00 37 1009.3
20260831191543 99 244 1.0 6.0 0.00 0.00 0.00 37 1009.3
20260831191043 99 251 2.0 6.0 0.00 0.00 0.00 39 1009.2
20260831190546 98 232 2.0 5.0 0.00 0.00 0.00 38 1009.3
20260831190047 98 224 0.0 3.0 0.00 0.00 0.00 39 1009.3
20260831185542 98 171 1.0 3.0 0.00 0.00 0.00 38 1009.3
20260831185042 99 219 0.0 7.0 0.00 0.00 0.00 37 1009.3
20260831184552 99 308 1.0 7.0 0.00 0.00 0.00 39 1009.3
20260831184041 99 264 1.0 8.0 0.00 0.00 0.00 38 1009.6
20260831183540 98 219 2.0 8.0 0.00 0.00 0.00 39 1009.6
20260831183040 98 94 0.0 8.0 0.00 0.00 0.00 38 1009.6
20260831182540 99 283 1.0 8.0 0.00 0.00 0.00 39 1009.8
20260831182040 99 222 2.0 8.0 0.00 0.00 0.00 40 1009.8
20260831181544 98 57 0.0 3.0 0.00 0.00 0.00 39 1009.7
20260831181037 97 348 0.0 7.0 0.00 0.00 0.00 40 1010.0
20260831180536 97 197 1.0 9.0 0.00 0.00 0.00 41 1010.2
20260831180036 97 195 4.0 9.0 0.00 0.00 0.00 40 1010.2
20260831175540 97 169 3.0 10.0 0.00 0.00 0.00 42 1010.3
20260831175036 97 163 2.0 10.0 0.00 0.00 0.00 40 1010.3
20260831174541 97 234 2.0 10.0 0.00 0.00 0.00 41 1010.5
20260831174035 97 200 3.0 8.0 0.00 0.00 0.00 40 1010.5
20260831173534 97 217 1.0 7.0 0.00 0.00 0.00 43 1010.6
20260831173033 97 238 2.0 7.0 0.00 0.00 0.00 42 1010.6
20260831172532 96 235 0.0 5.0 0.00 0.00 0.00 44 1010.5
20260831172032 95 233 2.0 7.0 0.00 0.00 0.00 44 1010.6
20260831171534 95 232 2.0 7.0 0.00 0.00 0.00 44 1010.8
20260831171030 95 6 1.0 8.0 0.00 0.00 0.00 45 1010.8
20260831170529 95 214 3.0 8.0 0.00 0.00 0.00 45 1010.8
20260831170026 95 330 1.0 6.0 0.00 0.00 0.00 47 1010.9
20260831165525 94 134 2.0 6.0 0.00 0.00 0.00 46 1010.9
20260831165024 94 203 2.0 6.0 0.00 0.00 0.00 47 1011.0
20260831164522 94 278 0.0 4.0 0.00 0.00 0.00 48 1010.9
20260831164022 93 210 0.0 4.0 0.00 0.00 0.00 46 1010.9
20260831163520 93 240 1.0 7.0 0.00 0.00 0.00 48 1011.0
20260831163028 92 231 2.0 8.0 0.00 0.00 0.00 47 1011.0
20260831162519 92 325 2.0 8.0 0.00 0.00 0.00 48 1010.9
20260831162016 92 308 2.0 8.0 0.00 0.00 0.00 50 1010.8
20260831161514 91 244 2.0 8.0 0.00 0.00 0.00 50 1010.9
20260831161013 91 314 2.0 8.0 0.00 0.00 0.00 50 1011.0
20260831160512 90 236 2.0 7.0 0.00 0.00 0.00 50 1011.0
20260831160011 90 224 1.0 7.0 0.00 0.00 0.00 51 1011.0
20260831155510 89 113 2.0 7.0 0.00 0.00 0.00 53 1011.0
20260831155011 89 210 3.0 7.0 0.00 0.00 0.00 52 1011.1
20260831154508 89 232 0.0 7.0 0.00 0.00 0.00 55 1011.1
20260831154007 88 197 0.0 7.0 0.00 0.00 0.00 56 1011.0
20260831153505 88 24 1.0 6.0 0.00 0.00 0.00 58 1011.0
20260831153007 87 218 2.0 6.0 0.00 0.00 0.00 58 1011.0
20260831152503 87 253 1.0 11.0 0.00 0.00 0.00 58 1010.9
20260831152101 86 287 2.0 11.0 0.00 0.00 0.00 61 1010.9
20260831151603 86 180 1.0 7.0 0.00 0.00 0.00 60 1010.9
20260831151059 86 278 2.0 7.0 0.00 0.00 0.00 62 1010.9
20260831150601 85 236 2.0 8.0 0.00 0.00 0.00 64 1010.9
20260831150057 84 184 3.0 8.0 0.00 0.00 0.00 65 1010.7
20260831145558 84 297 2.0 6.0 0.00 0.00 0.00 65 1010.8
20260831145057 84 319 2.0 9.0 0.00 0.00 0.00 68 1010.8
20260831144630 83 236 4.0 9.0 0.00 0.00 0.00 67 1010.9
20260831144053 83 238 2.0 9.0 0.00 0.00 0.00 68 1010.8
20260831143554 83 241 2.0 6.0 0.00 0.00 0.00 69 1010.8
20260831143052 83 262 2.0 6.0 0.00 0.00 0.00 69 1010.8
20260831142553 83 307 2.0 7.0 0.00 0.00 0.00 69 1010.9
20260831142049 82 314 1.0 8.0 0.00 0.00 0.00 70 1010.8
20260831141547 82 191 2.0 10.0 0.00 0.00 0.00 70 1010.7
20260831141047 82 262 3.0 8.0 0.00 0.00 0.00 71 1010.6
20260831140546 81 301 2.0 8.0 0.00 0.00 0.00 72 1010.7
20260831140046 81 326 3.0 8.0 0.00 0.00 0.00 72 1010.7